DW6157 Weather Reports


time (UTC)temp
C
wind
direction
speed
KPH
gust
KPH
rain 1hr
cm
rain 24hr
cm
rain mn
cm
humidity
%
barometer
mb
20260502200023 10 243 0.0 0.0 0.05 0.18 0.18 90 1008.8
20260502194523 10 244 0.0 0.0 0.10 0.18 0.18 90 1008.8
20260502193022 11 244 0.0 0.0 0.13 0.15 0.15 88 1008.6
20260502191522 11 244 0.0 0.0 0.15 0.15 0.15 88 1008.6
20260502190033 11 241 0.0 0.0 0.13 0.13 0.13 85 1008.8
20260502184520 12 240 0.0 0.0 0.08 0.08 0.08 81 1009.2
20260502183020 12 289 0.0 0.0 0.03 0.03 0.03 76 1009.1
20260502181518 13 288 0.0 4.8 0.00 0.00 0.00 73 1009.2
20260502163017 15 195 3.2 6.4 0.00 0.00 0.00 70 1009.0
20260502161513 15 205 4.8 8.0 0.00 0.00 0.00 67 1009.1
20260502151527 15 233 6.4 12.9 0.00 0.00 0.00 67 1009.4
20260502130106 16 205 11.3 17.7 0.00 0.00 0.00 71 1010.3
20260502123055 16 205 12.9 19.3 0.00 0.00 0.00 69 1010.6
20260502121554 17 216 14.5 20.9 0.00 0.00 0.00 66 1010.6
20260502114551 17 200 9.7 17.7 0.00 0.00 0.00 64 1011.1
20260502113053 17 210 11.3 19.3 0.00 0.00 0.00 61 1011.1
20260502111548 17 200 9.7 19.3 0.00 0.00 0.00 62 1011.3
20260502110055 17 196 9.7 17.7 0.00 0.00 0.00 60 1011.6
20260502104542 17 205 9.7 16.1 0.00 0.00 0.00 59 1011.8
20260502103040 16 189 6.4 14.5 0.00 0.00 0.00 59 1011.9
20260502101541 16 196 9.7 17.7 0.00 0.00 0.00 58 1011.9
20260502091533 15 225 11.3 20.9 0.00 0.00 0.00 61 1012.4
20260502071514 15 210 9.7 16.1 0.00 0.00 0.00 62 1013.4
20260502070029 14 200 6.4 14.5 0.00 0.00 0.00 65 1013.6
20260502064508 14 220 4.8 14.5 0.00 0.00 0.00 66 1013.7
20260502063015 13 200 4.8 12.9 0.00 0.00 0.00 67 1013.8
20260502061502 13 225 4.8 9.7 0.00 0.00 0.00 71 1013.9
20260502060057 13 261 1.6 8.0 0.00 0.00 0.00 72 1013.9
20260502054556 12 239 0.0 8.0 0.00 0.00 0.00 76 1014.0
20260502053050 11 228 3.2 8.0 0.00 0.00 0.00 78 1014.2
20260502051547 11 222 4.8 12.9 0.00 0.00 0.00 80 1014.2
20260502050048 10 223 3.2 12.9 0.00 0.00 0.00 83 1014.3
20260502044540 10 252 3.2 8.0 0.00 0.00 0.00 86 1014.5
20260502043039 9 222 4.8 17.7 0.00 0.00 0.00 88 1014.7
20260502041545 8 224 6.4 14.5 0.00 0.00 0.00 88 1014.8
20260502040035 7 210 8.0 16.1 0.00 0.00 0.00 86 1014.9
20260502034533 7 200 4.8 12.9 0.00 0.00 0.00 82 1015.1
20260502033031 7 229 1.6 6.4 0.00 0.00 0.00 80 1015.2
20260502031527 7 237 3.2 6.4 0.00 0.00 0.00 80 1015.4
20260502030026 7 266 3.2 9.7 0.00 0.00 0.00 80 1015.5
20260502024523 8 210 3.2 12.9 0.00 0.00 0.00 80 1015.7
20260502023020 8 205 4.8 12.9 0.00 0.00 0.00 80 1016.0
20260502021518 8 220 4.8 12.9 0.00 0.00 0.00 80 1016.1
20260502020016 8 218 4.8 12.9 0.00 0.00 0.00 80 1016.2
20260502014516 8 240 4.8 12.9 0.00 0.00 0.00 81 1016.3
20260502013013 8 233 6.4 14.5 0.00 0.00 0.00 80 1016.5
20260502011511 8 232 6.4 12.9 0.00 0.00 0.00 81 1016.5
20260502010012 8 210 6.4 12.9 0.00 0.00 0.00 82 1016.7
20260502004507 8 229 9.7 14.5 0.00 0.00 0.00 82 1016.9
20260502003005 8 246 6.4 14.5 0.00 0.00 0.00 83 1017.1
20260502001501 8 224 4.8 12.9 0.00 0.00 0.00 83 1017.3
20260502000122 8 218 6.4 17.7 0.00 0.00 0.00 83 1017.4
20260501234557 9 219 6.4 14.5 0.00 0.00 0.00 81 1017.5
20260501233055 9 234 6.4 16.1 0.00 0.00 0.00 80 1017.6
20260501231553 10 223 8.0 16.1 0.00 0.00 0.00 78 1017.7
20260501230049 10 229 8.0 16.1 0.00 0.00 0.00 77 1017.8
20260501224604 10 227 6.4 12.9 0.00 0.00 0.00 76 1018.0
20260501223043 10 224 4.8 14.5 0.00 0.00 0.00 76 1018.1
20260501221544 10 226 4.8 12.9 0.00 0.00 0.00 76 1018.2
20260501220042 10 238 4.8 17.7 0.00 0.00 0.00 77 1018.1
20260501214538 10 237 4.8 19.3 0.00 0.00 0.00 77 1018.1
20260501213042 10 210 4.8 14.5 0.00 0.00 0.00 77 1018.2
20260501211536 10 237 4.8 17.7 0.00 0.00 0.00 76 1018.2
20260501210035 11 235 8.0 19.3 0.00 0.00 0.00 75 1018.4
20260501204535 11 297 8.0 20.9 0.00 0.00 0.00 75 1018.4
20260501203037 11 287 6.4 17.7 0.00 0.00 0.00 75 1018.5
20260501201532 11 281 4.8 16.1 0.00 0.00 0.00 75 1018.5